Fort Covington, New York, United States (12937)
Lat: 44.99N, Lon: 74.5W
Wx Zone: NYZ027
Local Info
Past Weather Observations for Friday, November 21, 2014

NOTE: This archive is for the closest National Weather Service station to Fort Covington. Information may differ from the station used for current weather conditions.

Click here for Long-term Archive

Time Weather Temperature Dewpoint Humidity Pressure Winds Precip Visibility
23:53
Clear
19°F / -7°C 10°F / -12°C 68% 30.33 in
(1027 mb)
SW 9.2 mph
(SW 15 kph)
- 10SM
22:53
Partly Cloudy
21°F / -6°C 10°F / -12°C 63% 30.36 in
(1028 mb)
SW 10.4 mph
(SW 17 kph)
- 10SM
21:53
Clear
21°F / -6°C 10°F / -12°C 63% 30.36 in
(1028 mb)
SW 8.1 mph
(SW 13 kph)
- 10SM
20:53
Overcast
21°F / -6°C 10°F / -12°C 63% 30.36 in
(1028 mb)
SW 10.4 mph
(SW 17 kph)
- 10SM
19:53
Overcast
21°F / -6°C 10°F / -12°C 63% 30.39 in
(1029 mb)
SW 9.2 mph
(SW 15 kph)
- 10SM
18:53
Overcast
21°F / -6°C 10°F / -12°C 63% 30.36 in
(1028 mb)
SW 9.2 mph
(SW 15 kph)
- 10SM
17:53
Mostly Cloudy
21°F / -6°C 9°F / -13°C 58% 30.36 in
(1028 mb)
SW 9.2 mph
(SW 15 kph)
- 10SM
16:53
Clear
19°F / -7°C 7°F / -14°C 58% 30.33 in
(1027 mb)
SW 5.8 mph
(SW 9 kph)
- 10SM
15:53
Clear
23°F / -5°C 7°F / -14°C 50% 30.33 in
(1027 mb)
SW 9.2 mph
(SW 15 kph)
- 10SM
14:53
Clear
25°F / -4°C 7°F / -14°C 46% 30.33 in
(1027 mb)
SSW 12.7 mph
(SSW 20 kph)
- 10SM
13:53
Clear
23°F / -5°C 7°F / -14°C 50% 30.3 in
(1026 mb)
SSW 11.5 mph
(SSW 19 kph)
- 10SM
12:53
Clear
21°F / -6°C 7°F / -14°C 54% 30.3 in
(1026 mb)
SSW 11.5 mph
(SSW 19 kph)
- 10SM
11:53
Clear
21°F / -6°C 9°F / -13°C 58% 30.3 in
(1026 mb)
SSW 12.7 mph
(SSW 20 kph)
- 10SM
10:53
Clear
21°F / -6°C 5°F / -15°C 49% 30.27 in
(1025 mb)
WNW 10.4 mph
(WNW 17 kph)
- 10SM
09:53
Clear
19°F / -7°C 9°F / -13°C 63% 30.24 in
(1024 mb)
WNW 10.4 mph
(WNW 17 kph)
- 10SM
08:53
Clear
19°F / -7°C 9°F / -13°C 63% 30.21 in
(1023 mb)
NW 15 mph
(NW 24 kph)
- 10SM
07:53
Clear
18°F / -8°C 10°F / -12°C 73% 30.18 in
(1022 mb)
WNW 12.7 mph
(WNW 20 kph)
- 10SM
06:53
Clear
19°F / -7°C 12°F / -11°C 73% 30.12 in
(1020 mb)
W 10.4 mph
(W 17 kph)
- 10SM
05:53
Clear
19°F / -7°C 14°F / -10°C 79% 30.06 in
(1018 mb)
WNW 11.5 mph
(WNW 19 kph)
- 10SM
04:53
Clear
16°F / -9°C 12°F / -11°C 86% 30.04 in
(1017 mb)
SW 5.8 mph
(SW 9 kph)
- 10SM
03:53
Clear
16°F / -9°C 10°F / -12°C 79% 30.01 in
(1016 mb)
SW 6.9 mph
(SW 11 kph)
- 10SM
02:53
Partly Cloudy
21°F / -6°C 14°F / -10°C 74% 29.98 in
(1015 mb)
SSW 8.1 mph
(SSW 13 kph)
- 10SM
02:09
Mostly Cloudy
23°F / -5°C 14°F / -10°C 68% 29.95 in
(1014 mb)
SSW 11.5 mph
(SSW 19 kph)
- 10SM
01:53
Mostly Cloudy
23°F / -5°C 14°F / -10°C 68% 29.95 in
(1014 mb)
SSW 13.8 mph
(SSW 22 kph)
- 10SM
00:53
Overcast
23°F / -5°C 12°F / -11°C 63% 29.92 in
(1013 mb)
SW 8.1 mph
(SW 13 kph)
- 10SM
00:43
Overcast
21°F / -6°C 12°F / -11°C 68% 29.92 in
(1013 mb)
SW 8.1 mph
(SW 13 kph)
- 10SM
00:31
Overcast
21°F / -6°C 12°F / -11°C 68% 29.89 in
(1012 mb)
SW 9.2 mph
(SW 15 kph)
- 10SM
00:17
Overcast
21°F / -6°C 12°F / -11°C 68% 29.89 in
(1012 mb)
SW 9.2 mph
(SW 15 kph)
- 10SM
Time Weather Temperature Dewpoint Humidity Pressure Winds Precip Visibility


Weather for websites

WeatherForYou.com, LLC is not responsible for any damages or problems caused by this service. Current weather conditions are obtained from the closest station including government and personal stations which may have varying degrees of accuracy. Weather forecasts are derived from the NOAA NDFD. Like all things, this site belongs to Jesus Christ... He just trusts me to maintain it. If you have any questions or comments email webmaster@weatherforyou.com

Copyright © 2014, WeatherForYou.com LLC. All rights reserved.